STARLINK-36903, 68001

Orbit data source: Space-Track

STARLINK-36903, 68001 is a payload satellite owned by SpaceX/Seattle (US) in LEO that was launched on Fri, 27 Feb 2026 UTC via an FALCON 9 launch vehicle from the Air Force Eastern Test Range (AFETR). Payload-class satellites include a variety of spacecraft equipped with specific instruments for various scientific and technological missions. These include communications satellites like Starlink; space stations such as the ISS; scientific satellites like the Hubble; Earth observation satellites from companies like Planet Labs, Umbra, and HawkEye 360; GPS; miniature CubeSats for education and research; and military/defense satellites.

Loading next visibility...
Identifier
68001, 2026-039R
Orbit
LEO
Country
Flag of USUS
Related business
Manufacturer
SpaceX/Seattle
Mission
Operational Commercial Communications
Bus & Motor
STARLINK V2MO, Unknown motor
Mass
575 kg wet, ~530 kg dry
Launch date (UTC)
2026-02-27 (2 months ago)
Launch vehicle
FALCON 9
Launch site
Air Force Eastern Test Range (AFETR)
Object type
Payload
Rocket body
Debris
Shape & HBR
Box + 2 Pan, 17.7 m
Radar Cross Section
36.964 m²

Expand to show TLE details & history
Last TLE update: 2 days ago

TLE from 2 days ago
0 STARLINK-36903
1 68001U 26039R   26110.43806780  .00002067  00000-0  84600-4 0  9998
2 68001  43.0003 173.5612 0001241 250.0036 110.0682 15.27579169  8082
Epoch: 2026-04-20T10:30Z
TLE epoch observation values (Epoch: 2026-04-20T10:30:49.057Z)
Latitude
-0.00004°
Longitude
167.32855°
Altitude
483.119 km
Speed
7.625 km/s
True Right ascension
11h 34m 14s
True Declination
0° 00' 00"
Sunlit
Object was in full shadow at epoch
Visualization orbit readout
Latitude
Unknown
Longitude
Unknown
Altitude
Unknown
Speed
Unknown
Apparent Right ascension
Unknown
Apparent Declination
Unknown
Sunlit
N/A
Visualization observer readout
Local Sidereal Time
19:01:01
Azimuth
Unknown
Elevation
Unknown
Doppler factor
Unknown
Orbital elements
Apogee altitude
485.848 km
Perigee altitude
484.145 km
Semi-major axis
6,863.134 km
Eccentricity
0.00012
Inclination
43.0003°
RAAN
173.5612°
Arg. of periapsis
250.0036°
True anomaly
110.08156°
Mean anomaly
110.0682°
Eccentric anomaly
110.07488°
Mean motion
3.81733 °/min
Orbital period
94.31 mins
BSTAR
0.0000846
Loading maneuver chart data...
Computing Atmospheric mass density...
Loading historical data...
Loading historical data...
Loading historical data...
Loading historical data...
Loading historical data...
Loading historical data...
Loading historical data...

Documentation

Showing up to 5 results
|